owner,sensor,date,latitude,longitude,vertical_datum,sea_water_practical_salinity,qcFlag 
NERRS,ioos:station:NOAA.NERRS:gndpcwq:1,2011-10-01T06:45:00Z,30.3486,-88.4185,0.0,21.3,1111122 
NERRS,ioos:station:NOAA.NERRS:gndpcwq:1,2011-10-01T07:45:00Z,30.3486,-88.4185,0.0,21.5,1111122 
NERRS,ioos:station:NOAA.NERRS:gndpcwq:1,2011-10-01T08:45:00Z,30.3486,-88.4185,0.0,21.6,1111122 
NERRS,ioos:station:NOAA.NERRS:gndpcwq:1,2011-10-01T09:45:00Z,30.3486,-88.4185,0.0,21.5,1111122 
NERRS,ioos:station:NOAA.NERRS:gndpcwq:1,2011-10-01T10:45:00Z,30.3486,-88.4185,0.0,21.3,1111122 
NERRS,ioos:station:NOAA.NERRS:gndpcwq:1,2011-10-01T11:45:00Z,30.3486,-88.4185,0.0,21.2,1111122 
NERRS,ioos:station:NOAA.NERRS:gndpcwq:1,2011-10-01T12:45:00Z,30.3486,-88.4185,0.0,21.3,1111122 
NERRS,ioos:station:NOAA.NERRS:gndpcwq:1,2011-10-01T13:45:00Z,30.3486,-88.4185,0.0,21.5,1111122 
NERRS,ioos:station:NOAA.NERRS:gndpcwq:1,2011-10-01T14:45:00Z,30.3486,-88.4185,0.0,21.3,1111122 
NERRS,ioos:station:NOAA.NERRS:gndpcwq:1,2011-10-01T15:45:00Z,30.3486,-88.4185,0.0,21.4,1111122 
NERRS,ioos:station:NOAA.NERRS:gndpcwq:1,2011-10-01T16:45:00Z,30.3486,-88.4185,0.0,21.4,1111122 
NERRS,ioos:station:NOAA.NERRS:gndpcwq:1,2011-10-01T17:45:00Z,30.3486,-88.4185,0.0,21.4,1111122 
NERRS,ioos:station:NOAA.NERRS:gndpcwq:1,2011-10-01T18:30:00Z,30.3486,-88.4185,0.0,21.5,1111122 
NERRS,ioos:station:NOAA.NERRS:gndpcwq:1,2011-10-01T19:45:00Z,30.3486,-88.4185,0.0,21.8,1111122 
NERRS,ioos:station:NOAA.NERRS:gndpcwq:1,2011-10-01T20:45:00Z,30.3486,-88.4185,0.0,21.8,1111122 
NERRS,ioos:station:NOAA.NERRS:gndpcwq:1,2011-10-01T21:45:00Z,30.3486,-88.4185,0.0,22.4,1111122 
NERRS,ioos:station:NOAA.NERRS:gndpcwq:1,2011-10-01T22:45:00Z,30.3486,-88.4185,0.0,22.3,1111122 
NERRS,ioos:station:NOAA.NERRS:gndpcwq:1,2011-10-01T23:45:00Z,30.3486,-88.4185,0.0,22.3,1111122 
NERRS,ioos:station:NOAA.NERRS:gndpcwq:1,2011-10-02T06:45:00Z,30.3486,-88.4185,0.0,23.5,1111122 
NERRS,ioos:station:NOAA.NERRS:gndpcwq:1,2011-10-02T07:45:00Z,30.3486,-88.4185,0.0,23.7,1111122 
NERRS,ioos:station:NOAA.NERRS:gndpcwq:1,2011-10-02T08:45:00Z,30.3486,-88.4185,0.0,24.1,1111122 
NERRS,ioos:station:NOAA.NERRS:gndpcwq:1,2011-10-02T09:45:00Z,30.3486,-88.4185,0.0,24.1,1111122 
NERRS,ioos:station:NOAA.NERRS:gndpcwq:1,2011-10-02T10:45:00Z,30.3486,-88.4185,0.0,23.8,1111122 
NERRS,ioos:station:NOAA.NERRS:gndpcwq:1,2011-10-02T11:45:00Z,30.3486,-88.4185,0.0,23.2,1111122 
NERRS,ioos:station:NOAA.NERRS:gndpcwq:1,2011-10-02T12:45:00Z,30.3486,-88.4185,0.0,23.2,1111122 
NERRS,ioos:station:NOAA.NERRS:gndpcwq:1,2011-10-02T13:45:00Z,30.3486,-88.4185,0.0,23.2,1111122 
NERRS,ioos:station:NOAA.NERRS:gndpcwq:1,2011-10-02T14:45:00Z,30.3486,-88.4185,0.0,23.0,1111122 
NERRS,ioos:station:NOAA.NERRS:gndpcwq:1,2011-10-02T15:45:00Z,30.3486,-88.4185,0.0,22.9,1111122 
NERRS,ioos:station:NOAA.NERRS:gndpcwq:1,2011-10-02T16:45:00Z,30.3486,-88.4185,0.0,22.7,1111122 
NERRS,ioos:station:NOAA.NERRS:gndpcwq:1,2011-10-02T17:30:00Z,30.3486,-88.4185,0.0,23.0,1111122 
NERRS,ioos:station:NOAA.NERRS:gndpcwq:1,2011-10-02T18:45:00Z,30.3486,-88.4185,0.0,23.1,1111122 
NERRS,ioos:station:NOAA.NERRS:gndpcwq:1,2011-10-02T19:45:00Z,30.3486,-88.4185,0.0,23.1,1111122 
NERRS,ioos:station:NOAA.NERRS:gndpcwq:1,2011-10-02T20:45:00Z,30.3486,-88.4185,0.0,23.2,1111122 
NERRS,ioos:station:NOAA.NERRS:gndpcwq:1,2011-10-02T21:45:00Z,30.3486,-88.4185,0.0,23.4,1111122 
NERRS,ioos:station:NOAA.NERRS:gndpcwq:1,2011-10-02T22:45:00Z,30.3486,-88.4185,0.0,23.6,1111122 
NERRS,ioos:station:NOAA.NERRS:gndpcwq:1,2011-10-02T23:45:00Z,30.3486,-88.4185,0.0,23.8,1111122 
NERRS,ioos:station:NOAA.NERRS:gndpcwq:1,2011-10-03T06:45:00Z,30.3486,-88.4185,0.0,24.4,1111122 
NERRS,ioos:station:NOAA.NERRS:gndpcwq:1,2011-10-03T07:45:00Z,30.3486,-88.4185,0.0,24.4,1111122 
NERRS,ioos:station:NOAA.NERRS:gndpcwq:1,2011-10-03T08:45:00Z,30.3486,-88.4185,0.0,24.4,1111122 
NERRS,ioos:station:NOAA.NERRS:gndpcwq:1,2011-10-03T09:45:00Z,30.3486,-88.4185,0.0,24.4,1111122 
NERRS,ioos:station:NOAA.NERRS:gndpcwq:1,2011-10-03T10:45:00Z,30.3486,-88.4185,0.0,24.5,1111122 
NERRS,ioos:station:NOAA.NERRS:gndpcwq:1,2011-10-03T11:45:00Z,30.3486,-88.4185,0.0,24.4,1111122 
NERRS,ioos:station:NOAA.NERRS:gndpcwq:1,2011-10-03T12:45:00Z,30.3486,-88.4185,0.0,24.4,1111122 
NERRS,ioos:station:NOAA.NERRS:gndpcwq:1,2011-10-03T13:45:00Z,30.3486,-88.4185,0.0,24.4,1111122 
NERRS,ioos:station:NOAA.NERRS:gndpcwq:1,2011-10-03T14:45:00Z,30.3486,-88.4185,0.0,24.4,1111122 
NERRS,ioos:station:NOAA.NERRS:gndpcwq:1,2011-10-03T15:45:00Z,30.3486,-88.4185,0.0,24.4,1111122 
NERRS,ioos:station:NOAA.NERRS:gndpcwq:1,2011-10-03T16:45:00Z,30.3486,-88.4185,0.0,24.5,1111122 
NERRS,ioos:station:NOAA.NERRS:gndpcwq:1,2011-10-03T17:45:00Z,30.3486,-88.4185,0.0,24.1,1111122 
NERRS,ioos:station:NOAA.NERRS:gndpcwq:1,2011-10-03T18:45:00Z,30.3486,-88.4185,0.0,24.5,1111122 
NERRS,ioos:station:NOAA.NERRS:gndpcwq:1,2011-10-03T19:45:00Z,30.3486,-88.4185,0.0,24.3,1111122 
NERRS,ioos:station:NOAA.NERRS:gndpcwq:1,2011-10-03T20:45:00Z,30.3486,-88.4185,0.0,24.4,1111122 
NERRS,ioos:station:NOAA.NERRS:gndpcwq:1,2011-10-03T21:45:00Z,30.3486,-88.4185,0.0,24.3,1111122 
NERRS,ioos:station:NOAA.NERRS:gndpcwq:1,2011-10-03T22:45:00Z,30.3486,-88.4185,0.0,24.3,1111122 
NERRS,ioos:station:NOAA.NERRS:gndpcwq:1,2011-10-03T23:45:00Z,30.3486,-88.4185,0.0,24.1,1111122 
NERRS,ioos:station:NOAA.NERRS:gndpcwq:1,2011-10-04T06:45:00Z,30.3486,-88.4185,0.0,25.1,1111122 
NERRS,ioos:station:NOAA.NERRS:gndpcwq:1,2011-10-04T07:45:00Z,30.3486,-88.4185,0.0,25.2,1111122 
NERRS,ioos:station:NOAA.NERRS:gndpcwq:1,2011-10-04T08:45:00Z,30.3486,-88.4185,0.0,25.2,1111122 
NERRS,ioos:station:NOAA.NERRS:gndpcwq:1,2011-10-04T09:45:00Z,30.3486,-88.4185,0.0,25.2,1111122 
NERRS,ioos:station:NOAA.NERRS:gndpcwq:1,2011-10-04T10:45:00Z,30.3486,-88.4185,0.0,24.6,1111122 
NERRS,ioos:station:NOAA.NERRS:gndpcwq:1,2011-10-04T11:45:00Z,30.3486,-88.4185,0.0,24.9,1111122 
NERRS,ioos:station:NOAA.NERRS:gndpcwq:1,2011-10-04T12:45:00Z,30.3486,-88.4185,0.0,24.9,1111122 
NERRS,ioos:station:NOAA.NERRS:gndpcwq:1,2011-10-04T13:45:00Z,30.3486,-88.4185,0.0,24.6,1111122 
NERRS,ioos:station:NOAA.NERRS:gndpcwq:1,2011-10-04T14:45:00Z,30.3486,-88.4185,0.0,24.7,1111122 
NERRS,ioos:station:NOAA.NERRS:gndpcwq:1,2011-10-04T15:45:00Z,30.3486,-88.4185,0.0,24.8,1111122 
NERRS,ioos:station:NOAA.NERRS:gndpcwq:1,2011-10-04T16:45:00Z,30.3486,-88.4185,0.0,24.8,1111122 
NERRS,ioos:station:NOAA.NERRS:gndpcwq:1,2011-10-04T17:45:00Z,30.3486,-88.4185,0.0,24.4,1111122 
NERRS,ioos:station:NOAA.NERRS:gndpcwq:1,2011-10-04T18:45:00Z,30.3486,-88.4185,0.0,24.8,1111122 
NERRS,ioos:station:NOAA.NERRS:gndpcwq:1,2011-10-04T19:45:00Z,30.3486,-88.4185,0.0,24.9,1111122 
NERRS,ioos:station:NOAA.NERRS:gndpcwq:1,2011-10-04T20:45:00Z,30.3486,-88.4185,0.0,24.9,1111122 
NERRS,ioos:station:NOAA.NERRS:gndpcwq:1,2011-10-04T21:45:00Z,30.3486,-88.4185,0.0,24.8,1111122 
NERRS,ioos:station:NOAA.NERRS:gndpcwq:1,2011-10-04T22:45:00Z,30.3486,-88.4185,0.0,24.9,1111122 
NERRS,ioos:station:NOAA.NERRS:gndpcwq:1,2011-10-04T23:45:00Z,30.3486,-88.4185,0.0,24.8,1111122 
NERRS,ioos:station:NOAA.NERRS:gndpcwq:1,2011-10-05T06:45:00Z,30.3486,-88.4185,0.0,25.3,1111122 
NERRS,ioos:station:NOAA.NERRS:gndpcwq:1,2011-10-05T07:45:00Z,30.3486,-88.4185,0.0,25.3,1111122 
NERRS,ioos:station:NOAA.NERRS:gndpcwq:1,2011-10-05T08:45:00Z,30.3486,-88.4185,0.0,25.3,1111122 
NERRS,ioos:station:NOAA.NERRS:gndpcwq:1,2011-10-05T09:45:00Z,30.3486,-88.4185,0.0,25.3,1111122 
NERRS,ioos:station:NOAA.NERRS:gndpcwq:1,2011-10-05T10:45:00Z,30.3486,-88.4185,0.0,25.4,1111122 
NERRS,ioos:station:NOAA.NERRS:gndpcwq:1,2011-10-05T11:45:00Z,30.3486,-88.4185,0.0,25.4,1111122 
NERRS,ioos:station:NOAA.NERRS:gndpcwq:1,2011-10-05T12:45:00Z,30.3486,-88.4185,0.0,25.4,1111122 
NERRS,ioos:station:NOAA.NERRS:gndpcwq:1,2011-10-05T13:45:00Z,30.3486,-88.4185,0.0,25.4,1111122 
NERRS,ioos:station:NOAA.NERRS:gndpcwq:1,2011-10-05T16:45:00Z,30.3486,-88.4185,0.0,25.1,1111122 
NERRS,ioos:station:NOAA.NERRS:gndpcwq:1,2011-10-05T17:45:00Z,30.3486,-88.4185,0.0,25.1,1111122 
NERRS,ioos:station:NOAA.NERRS:gndpcwq:1,2011-10-05T18:45:00Z,30.3486,-88.4185,0.0,24.9,1111122 
NERRS,ioos:station:NOAA.NERRS:gndpcwq:1,2011-10-05T19:45:00Z,30.3486,-88.4185,0.0,24.8,1111122 
NERRS,ioos:station:NOAA.NERRS:gndpcwq:1,2011-10-05T20:45:00Z,30.3486,-88.4185,0.0,24.8,1111122 
NERRS,ioos:station:NOAA.NERRS:gndpcwq:1,2011-10-05T21:45:00Z,30.3486,-88.4185,0.0,24.8,1111122 
NERRS,ioos:station:NOAA.NERRS:gndpcwq:1,2011-10-05T22:45:00Z,30.3486,-88.4185,0.0,25.0,1111122 
NERRS,ioos:station:NOAA.NERRS:gndpcwq:1,2011-10-05T23:45:00Z,30.3486,-88.4185,0.0,25.5,1111122 
NERRS,ioos:station:NOAA.NERRS:gndpcwq:1,2011-10-06T06:45:00Z,30.3486,-88.4185,0.0,25.8,1111122 
NERRS,ioos:station:NOAA.NERRS:gndpcwq:1,2011-10-06T07:45:00Z,30.3486,-88.4185,0.0,25.8,1111122 
NERRS,ioos:station:NOAA.NERRS:gndpcwq:1,2011-10-06T08:45:00Z,30.3486,-88.4185,0.0,25.9,1111122 
NERRS,ioos:station:NOAA.NERRS:gndpcwq:1,2011-10-06T09:30:00Z,30.3486,-88.4185,0.0,25.9,1111122 
NERRS,ioos:station:NOAA.NERRS:gndpcwq:1,2011-10-06T10:45:00Z,30.3486,-88.4185,0.0,25.6,1111122 
NERRS,ioos:station:NOAA.NERRS:gndpcwq:1,2011-10-06T11:45:00Z,30.3486,-88.4185,0.0,25.7,1111122 
NERRS,ioos:station:NOAA.NERRS:gndpcwq:1,2011-10-06T12:45:00Z,30.3486,-88.4185,0.0,25.7,1111122 
NERRS,ioos:station:NOAA.NERRS:gndpcwq:1,2011-10-06T13:45:00Z,30.3486,-88.4185,0.0,25.7,1111122 
NERRS,ioos:station:NOAA.NERRS:gndpcwq:1,2011-10-06T14:30:00Z,30.3486,-88.4185,0.0,25.6,1111122 
NERRS,ioos:station:NOAA.NERRS:gndpcwq:1,2011-10-06T15:45:00Z,30.3486,-88.4185,0.0,25.6,1111122 
NERRS,ioos:station:NOAA.NERRS:gndpcwq:1,2011-10-06T16:45:00Z,30.3486,-88.4185,0.0,25.5,1111122 
NERRS,ioos:station:NOAA.NERRS:gndpcwq:1,2011-10-06T17:45:00Z,30.3486,-88.4185,0.0,25.5,1111122 
NERRS,ioos:station:NOAA.NERRS:gndpcwq:1,2011-10-06T18:45:00Z,30.3486,-88.4185,0.0,25.4,1111122 
NERRS,ioos:station:NOAA.NERRS:gndpcwq:1,2011-10-06T19:45:00Z,30.3486,-88.4185,0.0,25.0,1111122 
NERRS,ioos:station:NOAA.NERRS:gndpcwq:1,2011-10-06T20:45:00Z,30.3486,-88.4185,0.0,25.3,1111122 
NERRS,ioos:station:NOAA.NERRS:gndpcwq:1,2011-10-06T21:45:00Z,30.3486,-88.4185,0.0,25.4,1111122 
NERRS,ioos:station:NOAA.NERRS:gndpcwq:1,2011-10-06T22:45:00Z,30.3486,-88.4185,0.0,25.7,1111122 
NERRS,ioos:station:NOAA.NERRS:gndpcwq:1,2011-10-06T23:45:00Z,30.3486,-88.4185,0.0,25.7,1111122 
NERRS,ioos:station:NOAA.NERRS:gndpcwq:1,2011-10-07T06:45:00Z,30.3486,-88.4185,0.0,25.6,1111122 
NERRS,ioos:station:NOAA.NERRS:gndpcwq:1,2011-10-07T07:45:00Z,30.3486,-88.4185,0.0,25.7,1111122 
NERRS,ioos:station:NOAA.NERRS:gndpcwq:1,2011-10-07T08:45:00Z,30.3486,-88.4185,0.0,25.8,1111122 
NERRS,ioos:station:NOAA.NERRS:gndpcwq:1,2011-10-07T09:45:00Z,30.3486,-88.4185,0.0,25.4,1111122 
NERRS,ioos:station:NOAA.NERRS:gndpcwq:1,2011-10-07T10:45:00Z,30.3486,-88.4185,0.0,22.7,1111122 
NERRS,ioos:station:NOAA.NERRS:gndpcwq:1,2011-10-07T11:30:00Z,30.3486,-88.4185,0.0,25.4,1111122 
NERRS,ioos:station:NOAA.NERRS:gndpcwq:1,2011-10-07T12:45:00Z,30.3486,-88.4185,0.0,25.4,1111122 
NERRS,ioos:station:NOAA.NERRS:gndpcwq:1,2011-10-07T13:45:00Z,30.3486,-88.4185,0.0,25.4,1111122 
NERRS,ioos:station:NOAA.NERRS:gndpcwq:1,2011-10-07T14:45:00Z,30.3486,-88.4185,0.0,25.4,1111122 
NERRS,ioos:station:NOAA.NERRS:gndpcwq:1,2011-10-07T15:45:00Z,30.3486,-88.4185,0.0,25.3,1111122 
NERRS,ioos:station:NOAA.NERRS:gndpcwq:1,2011-10-07T16:45:00Z,30.3486,-88.4185,0.0,25.3,1111122 
NERRS,ioos:station:NOAA.NERRS:gndpcwq:1,2011-10-07T17:45:00Z,30.3486,-88.4185,0.0,25.2,1111122 
NERRS,ioos:station:NOAA.NERRS:gndpcwq:1,2011-10-07T18:45:00Z,30.3486,-88.4185,0.0,25.1,1111122 
NERRS,ioos:station:NOAA.NERRS:gndpcwq:1,2011-10-07T19:30:00Z,30.3486,-88.4185,0.0,25.0,1111122 
NERRS,ioos:station:NOAA.NERRS:gndpcwq:1,2011-10-07T20:30:00Z,30.3486,-88.4185,0.0,25.1,1111122 
NERRS,ioos:station:NOAA.NERRS:gndpcwq:1,2011-10-07T21:45:00Z,30.3486,-88.4185,0.0,25.1,1111122 
NERRS,ioos:station:NOAA.NERRS:gndpcwq:1,2011-10-07T22:45:00Z,30.3486,-88.4185,0.0,25.4,1111122 
NERRS,ioos:station:NOAA.NERRS:gndpcwq:1,2011-10-07T23:45:00Z,30.3486,-88.4185,0.0,26.1,1111122 
NERRS,ioos:station:NOAA.NERRS:gndpcwq:1,2011-10-08T06:45:00Z,30.3486,-88.4185,0.0,25.3,1111122 
NERRS,ioos:station:NOAA.NERRS:gndpcwq:1,2011-10-08T07:45:00Z,30.3486,-88.4185,0.0,25.3,1111122 
NERRS,ioos:station:NOAA.NERRS:gndpcwq:1,2011-10-08T08:45:00Z,30.3486,-88.4185,0.0,25.3,1111122 
NERRS,ioos:station:NOAA.NERRS:gndpcwq:1,2011-10-08T09:45:00Z,30.3486,-88.4185,0.0,25.3,1111122 
NERRS,ioos:station:NOAA.NERRS:gndpcwq:1,2011-10-08T10:45:00Z,30.3486,-88.4185,0.0,25.4,1111122 
NERRS,ioos:station:NOAA.NERRS:gndpcwq:1,2011-10-08T11:30:00Z,30.3486,-88.4185,0.0,25.3,1111122 
NERRS,ioos:station:NOAA.NERRS:gndpcwq:1,2011-10-08T12:45:00Z,30.3486,-88.4185,0.0,25.1,1111122 
NERRS,ioos:station:NOAA.NERRS:gndpcwq:1,2011-10-08T13:45:00Z,30.3486,-88.4185,0.0,25.2,1111122 
NERRS,ioos:station:NOAA.NERRS:gndpcwq:1,2011-10-08T14:45:00Z,30.3486,-88.4185,0.0,25.3,1111122 
NERRS,ioos:station:NOAA.NERRS:gndpcwq:1,2011-10-08T15:45:00Z,30.3486,-88.4185,0.0,25.4,1111122 
NERRS,ioos:station:NOAA.NERRS:gndpcwq:1,2011-10-08T16:30:00Z,30.3486,-88.4185,0.0,25.4,1111122 
NERRS,ioos:station:NOAA.NERRS:gndpcwq:1,2011-10-08T17:15:00Z,30.3486,-88.4185,0.0,24.9,1111122 
NERRS,ioos:station:NOAA.NERRS:gndpcwq:1,2011-10-08T18:15:00Z,30.3486,-88.4185,0.0,24.8,1111122 
NERRS,ioos:station:NOAA.NERRS:gndpcwq:1,2011-10-08T19:45:00Z,30.3486,-88.4185,0.0,25.8,1111122 
NERRS,ioos:station:NOAA.NERRS:gndpcwq:1,2011-10-08T20:45:00Z,30.3486,-88.4185,0.0,26.1,1111122 
NERRS,ioos:station:NOAA.NERRS:gndpcwq:1,2011-10-08T21:30:00Z,30.3486,-88.4185,0.0,26.2,1111122 
NERRS,ioos:station:NOAA.NERRS:gndpcwq:1,2011-10-08T22:00:00Z,30.3486,-88.4185,0.0,25.8,1111122 
NERRS,ioos:station:NOAA.NERRS:gndpcwq:1,2011-10-08T23:15:00Z,30.3486,-88.4185,0.0,25.6,1111122 
NERRS,ioos:station:NOAA.NERRS:gndpcwq:1,2011-10-09T06:30:00Z,30.3486,-88.4185,0.0,25.0,1111122 
NERRS,ioos:station:NOAA.NERRS:gndpcwq:1,2011-10-09T07:45:00Z,30.3486,-88.4185,0.0,24.7,1111122 
NERRS,ioos:station:NOAA.NERRS:gndpcwq:1,2011-10-09T08:30:00Z,30.3486,-88.4185,0.0,24.6,1111122 
NERRS,ioos:station:NOAA.NERRS:gndpcwq:1,2011-10-09T09:45:00Z,30.3486,-88.4185,0.0,24.5,1111122 
NERRS,ioos:station:NOAA.NERRS:gndpcwq:1,2011-10-09T10:45:00Z,30.3486,-88.4185,0.0,24.4,1111122 
NERRS,ioos:station:NOAA.NERRS:gndpcwq:1,2011-10-09T11:45:00Z,30.3486,-88.4185,0.0,24.3,1111122 
NERRS,ioos:station:NOAA.NERRS:gndpcwq:1,2011-10-09T12:45:00Z,30.3486,-88.4185,0.0,24.5,1111122 
NERRS,ioos:station:NOAA.NERRS:gndpcwq:1,2011-10-09T13:45:00Z,30.3486,-88.4185,0.0,24.2,1111122 
NERRS,ioos:station:NOAA.NERRS:gndpcwq:1,2011-10-09T14:45:00Z,30.3486,-88.4185,0.0,24.2,1111122 
NERRS,ioos:station:NOAA.NERRS:gndpcwq:1,2011-10-09T15:45:00Z,30.3486,-88.4185,0.0,24.9,1111122 
NERRS,ioos:station:NOAA.NERRS:gndpcwq:1,2011-10-09T16:45:00Z,30.3486,-88.4185,0.0,25.6,1111122 
NERRS,ioos:station:NOAA.NERRS:gndpcwq:1,2011-10-09T17:45:00Z,30.3486,-88.4185,0.0,25.4,1111122 
NERRS,ioos:station:NOAA.NERRS:gndpcwq:1,2011-10-09T18:45:00Z,30.3486,-88.4185,0.0,25.6,1111122 
NERRS,ioos:station:NOAA.NERRS:gndpcwq:1,2011-10-09T19:45:00Z,30.3486,-88.4185,0.0,25.5,1111122 
NERRS,ioos:station:NOAA.NERRS:gndpcwq:1,2011-10-09T20:45:00Z,30.3486,-88.4185,0.0,25.0,1111122 
NERRS,ioos:station:NOAA.NERRS:gndpcwq:1,2011-10-09T21:45:00Z,30.3486,-88.4185,0.0,24.8,1111122 
NERRS,ioos:station:NOAA.NERRS:gndpcwq:1,2011-10-09T22:30:00Z,30.3486,-88.4185,0.0,24.9,1111122 
NERRS,ioos:station:NOAA.NERRS:gndpcwq:1,2011-10-09T23:45:00Z,30.3486,-88.4185,0.0,25.0,1111122 
NERRS,ioos:station:NOAA.NERRS:gndpcwq:1,2011-10-10T06:45:00Z,30.3486,-88.4185,0.0,24.6,1111122 
NERRS,ioos:station:NOAA.NERRS:gndpcwq:1,2011-10-10T07:45:00Z,30.3486,-88.4185,0.0,24.3,1111122 
NERRS,ioos:station:NOAA.NERRS:gndpcwq:1,2011-10-10T08:45:00Z,30.3486,-88.4185,0.0,24.2,1111122 
NERRS,ioos:station:NOAA.NERRS:gndpcwq:1,2011-10-10T09:45:00Z,30.3486,-88.4185,0.0,24.3,1111122 
NERRS,ioos:station:NOAA.NERRS:gndpcwq:1,2011-10-10T10:45:00Z,30.3486,-88.4185,0.0,24.4,1111122 
NERRS,ioos:station:NOAA.NERRS:gndpcwq:1,2011-10-10T11:45:00Z,30.3486,-88.4185,0.0,24.3,1111122 
NERRS,ioos:station:NOAA.NERRS:gndpcwq:1,2011-10-10T12:45:00Z,30.3486,-88.4185,0.0,24.5,1111122 
NERRS,ioos:station:NOAA.NERRS:gndpcwq:1,2011-10-10T13:30:00Z,30.3486,-88.4185,0.0,24.6,1111122 
NERRS,ioos:station:NOAA.NERRS:gndpcwq:1,2011-10-10T14:45:00Z,30.3486,-88.4185,0.0,24.3,1111122 
NERRS,ioos:station:NOAA.NERRS:gndpcwq:1,2011-10-10T15:45:00Z,30.3486,-88.4185,0.0,24.4,1111122 
NERRS,ioos:station:NOAA.NERRS:gndpcwq:1,2011-10-10T16:45:00Z,30.3486,-88.4185,0.0,24.4,1111122 
NERRS,ioos:station:NOAA.NERRS:gndpcwq:1,2011-10-10T17:45:00Z,30.3486,-88.4185,0.0,24.6,1111122 
NERRS,ioos:station:NOAA.NERRS:gndpcwq:1,2011-10-10T18:30:00Z,30.3486,-88.4185,0.0,24.6,1111122 
NERRS,ioos:station:NOAA.NERRS:gndpcwq:1,2011-10-10T19:45:00Z,30.3486,-88.4185,0.0,24.4,1111122 
NERRS,ioos:station:NOAA.NERRS:gndpcwq:1,2011-10-10T20:45:00Z,30.3486,-88.4185,0.0,24.4,1111122 
NERRS,ioos:station:NOAA.NERRS:gndpcwq:1,2011-10-10T21:45:00Z,30.3486,-88.4185,0.0,24.5,1111122 
NERRS,ioos:station:NOAA.NERRS:gndpcwq:1,2011-10-10T22:45:00Z,30.3486,-88.4185,0.0,24.3,1111122 
NERRS,ioos:station:NOAA.NERRS:gndpcwq:1,2011-10-10T23:45:00Z,30.3486,-88.4185,0.0,24.1,1111122 
NERRS,ioos:station:NOAA.NERRS:gndpcwq:1,2011-10-11T06:45:00Z,30.3486,-88.4185,0.0,24.3,1111122 
NERRS,ioos:station:NOAA.NERRS:gndpcwq:1,2011-10-11T07:45:00Z,30.3486,-88.4185,0.0,24.3,1111122 
NERRS,ioos:station:NOAA.NERRS:gndpcwq:1,2011-10-11T08:45:00Z,30.3486,-88.4185,0.0,24.4,1111122 
NERRS,ioos:station:NOAA.NERRS:gndpcwq:1,2011-10-11T09:45:00Z,30.3486,-88.4185,0.0,24.2,1111122 
NERRS,ioos:station:NOAA.NERRS:gndpcwq:1,2011-10-11T10:45:00Z,30.3486,-88.4185,0.0,24.1,1111122 
NERRS,ioos:station:NOAA.NERRS:gndpcwq:1,2011-10-11T11:45:00Z,30.3486,-88.4185,0.0,24.1,1111122 
NERRS,ioos:station:NOAA.NERRS:gndpcwq:1,2011-10-11T12:45:00Z,30.3486,-88.4185,0.0,24.1,1111122 
NERRS,ioos:station:NOAA.NERRS:gndpcwq:1,2011-10-11T13:45:00Z,30.3486,-88.4185,0.0,24.0,1111122 
NERRS,ioos:station:NOAA.NERRS:gndpcwq:1,2011-10-11T14:45:00Z,30.3486,-88.4185,0.0,24.0,1111122 
NERRS,ioos:station:NOAA.NERRS:gndpcwq:1,2011-10-11T15:45:00Z,30.3486,-88.4185,0.0,24.1,1111122 
NERRS,ioos:station:NOAA.NERRS:gndpcwq:1,2011-10-11T16:45:00Z,30.3486,-88.4185,0.0,24.3,1111122 
NERRS,ioos:station:NOAA.NERRS:gndpcwq:1,2011-10-11T17:45:00Z,30.3486,-88.4185,0.0,24.2,1111122 
NERRS,ioos:station:NOAA.NERRS:gndpcwq:1,2011-10-11T18:45:00Z,30.3486,-88.4185,0.0,24.2,1111122 
NERRS,ioos:station:NOAA.NERRS:gndpcwq:1,2011-10-11T19:45:00Z,30.3486,-88.4185,0.0,24.0,1111122 
NERRS,ioos:station:NOAA.NERRS:gndpcwq:1,2011-10-11T20:45:00Z,30.3486,-88.4185,0.0,24.1,1111122 
NERRS,ioos:station:NOAA.NERRS:gndpcwq:1,2011-10-11T21:45:00Z,30.3486,-88.4185,0.0,24.0,1111122 
NERRS,ioos:station:NOAA.NERRS:gndpcwq:1,2011-10-11T22:45:00Z,30.3486,-88.4185,0.0,24.0,1111122 
NERRS,ioos:station:NOAA.NERRS:gndpcwq:1,2011-10-11T23:45:00Z,30.3486,-88.4185,0.0,24.1,1111122 
NERRS,ioos:station:NOAA.NERRS:gndpcwq:1,2011-10-12T06:45:00Z,30.3486,-88.4185,0.0,23.5,1111122 
NERRS,ioos:station:NOAA.NERRS:gndpcwq:1,2011-10-12T07:45:00Z,30.3486,-88.4185,0.0,23.4,1111122 
NERRS,ioos:station:NOAA.NERRS:gndpcwq:1,2011-10-12T08:45:00Z,30.3486,-88.4185,0.0,23.2,1111122 
NERRS,ioos:station:NOAA.NERRS:gndpcwq:1,2011-10-12T09:45:00Z,30.3486,-88.4185,0.0,23.2,1111122 
NERRS,ioos:station:NOAA.NERRS:gndpcwq:1,2011-10-12T10:45:00Z,30.3486,-88.4185,0.0,23.1,1111122 
NERRS,ioos:station:NOAA.NERRS:gndpcwq:1,2011-10-12T11:45:00Z,30.3486,-88.4185,0.0,23.2,1111122 
NERRS,ioos:station:NOAA.NERRS:gndpcwq:1,2011-10-12T12:45:00Z,30.3486,-88.4185,0.0,23.0,1111122 
NERRS,ioos:station:NOAA.NERRS:gndpcwq:1,2011-10-12T13:45:00Z,30.3486,-88.4185,0.0,23.1,1111122 
NERRS,ioos:station:NOAA.NERRS:gndpcwq:1,2011-10-12T14:45:00Z,30.3486,-88.4185,0.0,23.0,1111122 
NERRS,ioos:station:NOAA.NERRS:gndpcwq:1,2011-10-12T15:45:00Z,30.3486,-88.4185,0.0,23.0,1111122 
NERRS,ioos:station:NOAA.NERRS:gndpcwq:1,2011-10-12T16:45:00Z,30.3486,-88.4185,0.0,22.9,1111122 
NERRS,ioos:station:NOAA.NERRS:gndpcwq:1,2011-10-12T17:45:00Z,30.3486,-88.4185,0.0,22.7,1111122 
NERRS,ioos:station:NOAA.NERRS:gndpcwq:1,2011-10-12T18:45:00Z,30.3486,-88.4185,0.0,22.7,1111122 
NERRS,ioos:station:NOAA.NERRS:gndpcwq:1,2011-10-12T19:45:00Z,30.3486,-88.4185,0.0,22.6,1111122 
NERRS,ioos:station:NOAA.NERRS:gndpcwq:1,2011-10-12T20:45:00Z,30.3486,-88.4185,0.0,22.5,1111122 
NERRS,ioos:station:NOAA.NERRS:gndpcwq:1,2011-10-12T21:45:00Z,30.3486,-88.4185,0.0,22.5,1111122 
NERRS,ioos:station:NOAA.NERRS:gndpcwq:1,2011-10-12T22:45:00Z,30.3486,-88.4185,0.0,22.2,1111122 
NERRS,ioos:station:NOAA.NERRS:gndpcwq:1,2011-10-12T23:45:00Z,30.3486,-88.4185,0.0,22.1,1111122 
NERRS,ioos:station:NOAA.NERRS:gndpcwq:1,2011-10-13T06:45:00Z,30.3486,-88.4185,0.0,21.4,1111122 
NERRS,ioos:station:NOAA.NERRS:gndpcwq:1,2011-10-13T07:45:00Z,30.3486,-88.4185,0.0,21.4,1111122 
NERRS,ioos:station:NOAA.NERRS:gndpcwq:1,2011-10-13T08:45:00Z,30.3486,-88.4185,0.0,21.2,1111122 
NERRS,ioos:station:NOAA.NERRS:gndpcwq:1,2011-10-13T09:45:00Z,30.3486,-88.4185,0.0,21.2,1111122 
NERRS,ioos:station:NOAA.NERRS:gndpcwq:1,2011-10-13T10:45:00Z,30.3486,-88.4185,0.0,21.1,1111122 
NERRS,ioos:station:NOAA.NERRS:gndpcwq:1,2011-10-13T11:45:00Z,30.3486,-88.4185,0.0,21.0,1111122 
NERRS,ioos:station:NOAA.NERRS:gndpcwq:1,2011-10-13T12:45:00Z,30.3486,-88.4185,0.0,20.9,1111122 
NERRS,ioos:station:NOAA.NERRS:gndpcwq:1,2011-10-13T13:45:00Z,30.3486,-88.4185,0.0,20.9,1111122 
NERRS,ioos:station:NOAA.NERRS:gndpcwq:1,2011-10-13T14:45:00Z,30.3486,-88.4185,0.0,20.9,1111122 
NERRS,ioos:station:NOAA.NERRS:gndpcwq:1,2011-10-13T15:45:00Z,30.3486,-88.4185,0.0,20.9,1111122 
NERRS,ioos:station:NOAA.NERRS:gndpcwq:1,2011-10-13T16:45:00Z,30.3486,-88.4185,0.0,20.6,1111122 
NERRS,ioos:station:NOAA.NERRS:gndpcwq:1,2011-10-13T17:45:00Z,30.3486,-88.4185,0.0,20.7,1111122 
NERRS,ioos:station:NOAA.NERRS:gndpcwq:1,2011-10-13T18:45:00Z,30.3486,-88.4185,0.0,20.6,1111122 
NERRS,ioos:station:NOAA.NERRS:gndpcwq:1,2011-10-13T19:45:00Z,30.3486,-88.4185,0.0,20.6,1111122 
NERRS,ioos:station:NOAA.NERRS:gndpcwq:1,2011-10-13T20:45:00Z,30.3486,-88.4185,0.0,20.3,1111122 
NERRS,ioos:station:NOAA.NERRS:gndpcwq:1,2011-10-13T21:45:00Z,30.3486,-88.4185,0.0,20.2,1111122 
NERRS,ioos:station:NOAA.NERRS:gndpcwq:1,2011-10-13T22:45:00Z,30.3486,-88.4185,0.0,19.9,1111122 
NERRS,ioos:station:NOAA.NERRS:gndpcwq:1,2011-10-13T23:45:00Z,30.3486,-88.4185,0.0,19.7,1111122 
NERRS,ioos:station:NOAA.NERRS:gndpcwq:1,2011-10-14T06:45:00Z,30.3486,-88.4185,0.0,18.7,1111122 
NERRS,ioos:station:NOAA.NERRS:gndpcwq:1,2011-10-14T07:45:00Z,30.3486,-88.4185,0.0,18.6,1111122 
NERRS,ioos:station:NOAA.NERRS:gndpcwq:1,2011-10-14T08:45:00Z,30.3486,-88.4185,0.0,18.4,1111122 
NERRS,ioos:station:NOAA.NERRS:gndpcwq:1,2011-10-14T09:45:00Z,30.3486,-88.4185,0.0,18.1,1111122 
NERRS,ioos:station:NOAA.NERRS:gndpcwq:1,2011-10-14T10:45:00Z,30.3486,-88.4185,0.0,17.8,1111122 
NERRS,ioos:station:NOAA.NERRS:gndpcwq:1,2011-10-14T11:45:00Z,30.3486,-88.4185,0.0,18.0,1111122 
NERRS,ioos:station:NOAA.NERRS:gndpcwq:1,2011-10-14T12:45:00Z,30.3486,-88.4185,0.0,17.8,1111122 
NERRS,ioos:station:NOAA.NERRS:gndpcwq:1,2011-10-14T13:45:00Z,30.3486,-88.4185,0.0,17.5,1111122 
NERRS,ioos:station:NOAA.NERRS:gndpcwq:1,2011-10-14T14:45:00Z,30.3486,-88.4185,0.0,17.4,1111122 
NERRS,ioos:station:NOAA.NERRS:gndpcwq:1,2011-10-14T15:45:00Z,30.3486,-88.4185,0.0,17.1,1111122 
NERRS,ioos:station:NOAA.NERRS:gndpcwq:1,2011-10-14T16:45:00Z,30.3486,-88.4185,0.0,17.2,1111122 
NERRS,ioos:station:NOAA.NERRS:gndpcwq:1,2011-10-14T17:45:00Z,30.3486,-88.4185,0.0,17.0,1111122 
NERRS,ioos:station:NOAA.NERRS:gndpcwq:1,2011-10-14T18:45:00Z,30.3486,-88.4185,0.0,17.5,1111122 
NERRS,ioos:station:NOAA.NERRS:gndpcwq:1,2011-10-14T19:45:00Z,30.3486,-88.4185,0.0,16.9,1111122 
NERRS,ioos:station:NOAA.NERRS:gndpcwq:1,2011-10-14T20:45:00Z,30.3486,-88.4185,0.0,16.9,1111122 
NERRS,ioos:station:NOAA.NERRS:gndpcwq:1,2011-10-14T21:45:00Z,30.3486,-88.4185,0.0,16.5,1111122 
NERRS,ioos:station:NOAA.NERRS:gndpcwq:1,2011-10-14T22:45:00Z,30.3486,-88.4185,0.0,16.3,1111122 